Temp
20 20 20 21 21 21 21 22 22 22 22 22 22 22 23 23 23 23 23 23 23 23 22 22 22 22 22 22 22 22 22 22 22 22 22 22 22 22 22 22 22 22 21 21 21 21 21 22 22 22 22 22 22 22 22 22 22 22 22 22 22 21 22 22 22 22 22 22 22 21 21 21 21 21 21 21 21 21 21 21 21 21 21 21 21
20 20 20 21 22 22 21 22 22 22 22 22 22 22 23 23 23 23 23 23 22 22 22 22 22 22 22 22 22 22 22 22 22 22 22 21 21 22 22 21 21 21 21 21 21 21 21 21 21 21 21 22 22 22 22 21 21 21 21 21 21 22 22 22 22 22 22 22 21 21 21 21 21 21 21 21 21 21 21 21 21 21 20 21 21
21 20 20 21 21 22 21 22 22 22 22 22 22 23 23 23 23 23 22 22 22 22 22 22 22 22 22 22 22 22 22 22 22 22 22 21 21 21 21 21 21 21 21 21 21 21 21 21 21 21 21 21 21 21 21 21 21 21 21 21 21 21 21 21 21 21 21 21 21 21 21 21 21 21 21 21 21 21 21 20 21 21 20 21 21
21 21 21 22 22 22 22 22 22 22 22 22 23 23 23 22 22 22 22 22 21 22 22 22 22 22 22 22 22 22 22 22 22 22 22 21 21 21 21 21 21 21 21 21 21 21 21 21 21 21 21 21 21 21 21 21 21 21 21 21 21 21 21 21 21 21 21 21 21 21 21 21 21 21 21 21 21 21 20 20 21 21 20 21 21
21 21 21 22 22 23 23 23 22 23 23 22 22 22 22 22 22 21 21 21 21 22 22 22 22 22 22 22 22 22 22 22 21 21 21 21 21 21 21 21 21 21 21 21 21 21 21 21 21 21 21 21 21 21 21 21 21 21 21 21 21 21 21 21 21 21 21 21 21 21 21 21 21 21 21 21 21 21 21 21 21 21 20 21 21
21 21 21 21 22 23 23 23 23 23 22 22 22 22 22 21 21 21 21 21 22 22 22 22 22 22 22 22 22 22 22 22 21 21 21 21 21 21 21 21 21 21 21 21 21 21 21 21 21 21 21 21 21 21 21 21 21 21 21 21 21 21 21 21 21 21 21 21 21 21 21 21 21 21 21 21 21 21 21 21 21 21 21 20 21
21 21 21 21 21 21 21 22 22 22 22 22 22 21 21 21 21 21 21 22 22 22 22 22 22 22 22 22 22 22 22 22 21 21 21 21 21 21 21 21 21 21 21 21 21 21 21 21 21 21 21 21 21 21 21 21 21 21 21 21 21 21 21 21 21 21 21 21 21 21 21 21 21 21 21 21 21 21 21 21 21 21 21 21 21
21 21 21 21 21 21 21 21 22 22 22 22 21 21 21 21 21 21 21 22 22 22 22 22 22 22 22 22 22 22 21 21 21 21 21 21 21 21 21 21 21 21 21 21 21 21 21 21 21 21 21 21 21 21 21 21 21 21 21 21 20 21 21 21 21 21 21 21 21 21 21 21 21 21 21 21 21 21 21 21 21 21 21 21 21
21 21 21 21 21 21 22 22 22 22 22 21 21 21 22 22 21 21 22 22 22 22 22 22 22 22 22 22 22 22 22 21 21 21 21 21 21 21 21 21 21 21 21 21 21 21 21 21 21 21 21 21 21 21 21 21 21 20 21 21 21 21 21 21 21 21 21 21 21 21 21 21 21 21 21 21 21 21 21 21 21 21 21 21 21
22 21 21 21 22 22 22 22 22 21 21 21 21 21 21 21 21 22 22 22 22 22 22 22 22 22 22 22 22 22 22 21 21 21 21 21 21 21 21 21 21 21 21 21 21 22 21 21 21 21 21 21 21 21 21 21 21 21 21 21 21 21 21 21 21 21 21 21 21 21 21 21 21 21 21 21 21 21 21 21 21 21 21 21 21
22 22 22 21 22 22 22 22 22 22 22 21 22 22 21 21 22 22 22 22 22 22 22 22 22 22 22 22 22 21 22 21 21 21 21 21 21 21 21 21 21 21 21 21 21 21 21 21 21 21 21 21 21 21 21 21 21 21 21 21 21 21 21 21 21 21 21 21 21 21 21 21 21 21 21 21 21 21 21 21 21 21 21 21 21
21 21 21 21 22 22 22 22 22 22 22 22 22 22 22 22 22 22 22 22 22 22 22 22 22 22 22 22 22 21 21 21 21 21 21 21 21 21 21 21 21 21 21 21 21 21 21 21 20 20 21 21 20 21 20 21 21 21 21 21 21 21 21 21 21 21 21 21 21 21 21 21 21 21 21 21 21 21 21 21 21 21 21 21 21
21 21 21 21 21 21 22 23 23 22 22 22 22 22 22 22 22 22 22 22 22 22 22 22 22 22 22 22 21 21 21 21 21 21 21 21 21 21 21 20 21 21 21 21 21 21 21 21 21 20 21 21 20 20 20 21 21 21 21 21 21 21 21 21 21 21 21 21 21 21 21 21 21 21 21 21 21 21 21 21 21 21 21 21 21
21 21 22 22 22 22 22 22 23 23 22 22 22 22 22 22 22 22 22 22 22 22 22 22 22 22 22 21 21 21 21 21 21 21 21 21 21 21 21 21 21 21 21 21 21 21 21 21 21 21 21 21 21 20 20 21 20 20 21 21 21 21 21 21 21 21 21 21 21 21 21 21 21 21 21 21 21 21 21 21 21 21 21 21 21
21 21 22 22 22 22 22 22 23 23 22 22 22 22 22 22 22 22 22 22 22 22 22 22 22 22 21 22 21 21 21 21 21 21 21 21 21 21 21 21 21 21 21 21 21 21 21 21 21 21 21 21 21 21 21 21 20 21 21 21 21 21 21 21 21 21 21 21 21 21 21 21 21 21 21 21 21 21 21 21 21 21 21 21 21
22 22 22 22 22 22 22 22 23 23 22 22 22 22 22 22 22 22 22 22 22 22 22 22 22 22 22 21 21 21 21 22 21 21 21 21 21 21 21 21 21 21 21 21 21 21 21 21 21 21 20 20 20 20 21 21 21 21 21 21 21 21 21 21 21 21 21 21 21 21 21 21 21 21 21 21 21 21 21 21 21 21 21 21 20
22 22 22 22 21 22 22 22 23 22 22 22 22 22 22 22 22 22 22 22 22 22 22 22 22 22 22 21 21 21 21 21 21 21 21 21 21 21 21 21 21 21 21 21 21 21 21 21 21 21 21 20 20 20 20 21 21 21 21 21 21 21 21 21 21 21 21 21 21 21 21 21 21 21 21 21 21 21 21 21 21 21 21 20 20
22 22 22 21 21 22 22 22 22 22 22 22 22 22 22 22 22 22 22 22 22 22 22 22 22 22 22 22 21 21 22 22 21 21 21 21 22 21 21 21 21 21 21 21 21 21 21 21 21 21 21 20 20 20 20 21 21 21 21 21 21 21 21 21 21 21 21 21 21 21 21 21 21 21 21 21 21 21 21 21 21 21 20 20 20
21 21 21 21 21 21 22 22 22 22 22 22 22 22 22 22 22 22 22 22 22 22 22 22 22 22 22 22 22 21 21 21 21 21 21 21 22 22 21 21 21 21 21 21 21 21 21 21 21 21 21 21 21 21 21 21 21 21 21 21 21 21 21 21 21 21 21 21 21 21 21 21 21 21 21 21 21 21 21 21 20 20 20 20 20
21 21 21 21 21 21 22 22 22 22 22 22 22 22 22 22 22 22 22 22 22 22 22 22 22 22 22 22 22 21 21 21 21 21 21 22 22 21 21 21 21 21 21 21 21 21 21 21 21 21 21 21 21 21 21 21 21 21 21 21 21 21 21 21 21 21 21 21 21 21 21 21 21 21 21 21 21 21 21 20 20 20 20 20 20
21 21 21 21 21 21 22 22 22 22 21 21 22 22 22 22 22 22 22 22 22 22 22 22 22 22 22 22 22 21 21 22 22 21 21 21 21 21 21 21 21 21 21 22 22 21 21 21 21 21 20 20 21 21 21 21 21 21 21 21 21 21 21 21 21 21 21 21 20 20 20 20 21 21 21 21 21 21 21 20 20 20 20 20 20
21 21 21 21 21 21 21 22 22 22 21 21 21 22 22 22 22 21 22 22 21 22 22 21 21 21 21 22 22 22 21 21 22 21 22 21 21 21 21 21 21 21 21 22 22 22 21 21 21 21 21 21 21 21 21 21 21 21 21 21 21 21 21 21 21 21 21 21 20 20 20 20 20 21 21 21 21 20 20 21 20 20 20 20 20
21 21 21 21 21 21 21 22 22 22 21 21 21 22 22 22 22 21 21 21 21 22 22 21 21 21 22 22 22 22 21 21 22 22 22 21 21 21 21 21 21 21 21 22 22 22 21 21 21 21 21 21 21 21 21 21 21 21 21 21 21 21 21 21 21 21 21 21 21 20 20 20 20 21 21 21 21 20 20 20 20 20 20 20 20
20 21 21 21 21 21 21 21 21 21 22 21 21 21 22 22 22 21 21 21 21 22 22 22 22 21 22 22 22 22 21 21 21 22 22 22 21 21 21 21 21 21 21 21 21 21 21 21 21 21 21 21 21 21 21 21 21 22 22 21 21 21 21 21 21 21 21 21 21 21 21 20 20 20 20 21 21 20 20 20 20 20 20 20 20
20 20 21 21 21 21 21 21 21 21 22 21 21 21 21 21 21 21 21 21 22 22 22 22 22 22 22 22 22 22 21 21 21 22 22 21 21 21 21 21 21 21 21 21 21 21 21 21 21 22 21 21 21 21 21 21 21 21 22 21 21 21 21 21 21 21 21 21 21 21 21 20 20 20 20 20 20 20 20 21 20 20 20 20 20
20 20 20 21 21 21 21 21 21 21 21 21 21 21 21 21 21 21 21 21 22 22 22 22 22 22 22 22 22 22 22 21 21 22 22 22 21 21 21 21 22 22 22 22 21 21 22 22 22 22 22 22 22 22 22 21 21 21 22 22 22 21 21 21 22 21 21 21 21 21 21 21 20 20 20 20 20 20 20 21 20 20 20 20 20
20 20 21 21 21 21 21 21 21 21 21 21 21 21 21 21 21 21 22 22 22 22 22 21 22 22 22 22 22 22 22 22 22 22 22 22 22 22 22 22 22 22 22 22 22 22 22 22 22 22 22 22 22 22 22 22 22 22 22 22 22 22 22 22 22 22 21 21 21 21 21 21 21 20 20 20 20 20 21 21 20 20 20 20 20
20 20 20 21 21 21 21 21 21 21 21 21 21 21 21 21 21 22 22 22 22 22 22 22 22 22 22 22 22 22 22 22 22 22 22 22 22 22 22 22 22 22 22 22 22 22 22 22 22 22 22 22 22 22 22 22 22 22 22 22 22 22 22 22 22 22 22 22 21 21 21 21 21 21 20 20 20 20 21 21 21 21 20 20 20
20 20 20 20 21 21 21 21 21 21 21 21 21 21 21 21 22 22 22 22 22 22 22 22 22 22 22 22 22 22 22 22 22 22 22 22 22 22 22 22 22 22 22 22 22 22 22 22 22 22 23 23 23 23 23 22 22 22 22 23 23 23 22 22 22 22 22 22 22 22 22 22 21 21 21 20 20 20 21 21 21 21 21 20 20
20 20 20 20 21 21 21 21 21 21 21 21 21 21 21 21 22 22 22 22 22 22 22 22 22 22 22 22 22 22 22 22 22 22 22 22 22 22 22 22 22 22 22 22 22 22 22 22 23 23 23 23 23 23 23 23 23 23 23 23 23 23 22 22 22 23 22 22 22 22 22 22 22 21 21 21 21 21 21 21 21 21 21 20 20
20 20 20 20 21 21 21 21 21 22 22 21 21 21 21 21 22 22 22 22 22 22 22 22 22 22 22 22 22 22 22 22 22 22 22 22 22 22 22 22 22 22 22 22 22 22 22 23 23 23 23 23 23 23 23 23 23 23 23 23 23 23 23 22 22 23 22 22 22 22 22 22 22 22 21 21 21 21 21 21 21 20 20 20 20
21 21 20 21 21 21 21 21 22 22 22 22 21 21 22 22 22 22 22 22 22 22 22 22 22 22 22 22 22 22 22 22 22 22 22 22 22 22 22 22 22 22 22 22 23 23 23 23 23 23 23 23 24 23 24 23 23 24 23 23 23 23 23 23 22 23 23 23 22 22 22 22 22 22 22 22 22 22 21 21 21 21 21 20 20
21 21 21 21 21 21 22 22 22 22 22 22 22 22 22 22 22 22 22 22 22 22 22 22 22 22 22 22 22 22 22 22 22 22 22 22 22 22 22 22 22 22 22 22 23 23 23 23 23 23 23 24 24 24 24 24 24 24 24 24 23 23 23 23 23 23 23 23 23 22 22 22 22 22 22 22 22 22 22 22 22 21 21 21 20
21 21 21 21 21 21 22 22 22 22 22 22 22 22 22 22 22 22 22 22 22 22 22 22 22 22 22 22 22 22 23 23 22 22 22 22 22 22 22 22 22 22 22 22 23 23 23 23 23 23 23 24 24 24 24 24 24 24 24 24 24 23 23 23 23 23 23 23 23 23 22 22 22 22 22 22 22 22 22 22 22 21 21 21 21
21 21 21 21 21 21 22 22 22 22 22 22 22 22 22 22 22 22 22 22 22 22 23 22 22 22 22 22 23 23 23 23 23 23 23 23 23 23 23 23 22 22 22 23 23 23 23 23 23 23 23 24 24 24 24 24 25 25 24 24 24 23 23 23 23 23 23 23 23 23 23 22 22 22 22 22 22 22 22 22 22 21 21 21 21
22 22 22 21 21 21 22 22 22 22 22 22 22 22 22 22 22 22 22 22 22 23 23 23 23 22 22 23 23 23 23 23 23 23 23 23 23 23 23 22 23 23 22 23 23 23 23 23 23 23 23 24 24 24 24 25 25 25 25 24 24 24 23 23 23 23 23 23 23 23 23 23 23 23 23 22 22 22 22 22 22 22 21 21 21
22 22 22 22 22 21 22 22 22 23 22 22 22 22 22 22 22 22 22 22 22 23 23 23 23 23 23 23 23 23 23 23 23 23 23 23 23 23 23 23 23 23 23 23 23 23 23 23 23 23 23 24 24 24 24 25 25 25 25 24 24 24 24 24 23 23 23 23 23 23 23 23 23 23 23 23 22 22 22 22 22 22 22 21 21
23 23 23 23 22 22 22 22 22 23 22 22 22 22 23 22 22 22 22 22 22 23 23 23 23 23 23 23 23 23 23 23 23 23 23 23 23 23 22 23 23 23 23 23 23 23 23 23 23 23 23 24 24 24 25 25 25 25 25 24 24 24 24 24 24 23 23 24 24 24 23 23 23 23 23 23 23 23 22 22 22 22 22 22 22
23 23 23 23 23 22 22 22 22 22 22 22 22 22 22 22 22 22 22 22 22 23 23 23 23 23 23 23 23 23 23 23 23 23 23 23 23 23 22 22 22 22 22 22 23 23 23 23 23 23 24 24 24 24 24 25 25 25 25 24 24 24 24 24 24 24 24 24 24 24 24 24 23 23 23 23 23 23 23 23 23 23 22 22 22
23 23 23 23 23 22 22 22 22 22 22 22 22 22 22 22 22 22 22 22 23 23 23 23 23 23 23 23 23 23 23 23 23 23 23 23 23 23 23 22 22 22 23 23 23 22 22 23 23 23 24 24 24 25 25 25 25 25 25 24 24 24 24 24 24 24 24 24 24 24 24 24 24 24 24 24 24 24 23 23 23 23 23 23 23
23 23 23 22 23 22 22 22 22 22 22 22 22 22 22 22 22 22 22 22 23 23 23 23 23 23 23 23 23 23 24 23 23 23 23 23 23 23 23 23 23 23 23 23 23 22 23 23 23 23 24 24 25 25 25 25 25 25 24 24 24 24 24 24 24 24 24 24 24 24 24 24 24 24 24 24 24 24 24 24 24 24 24 24 23
23 23 23 23 23 23 22 22 22 22 22 22 22 22 22 22 22 22 22 23 23 23 23 23 23 23 23 23 23 23 24 23 23 23 23 23 23 23 23 23 23 23 23 23 23 23 23 23 23 23 24 24 25 25 25 25 25 24 24 24 24 24 25 24 24 25 25 25 25 25 25 25 25 25 25 25 24 24 24 24 24 24 24 24 24
23 23 23 23 23 23 23 22 22 22 22 22 22 22 23 23 23 23 23 23 23 23 23 24 24 24 24 24 23 23 23 23 23 23 23 23 23 23 23 23 23 23 23 23 23 23 23 23 23 23 24 24 25 25 25 25 25 24 24 24 23 23 24 25 25 25 25 25 25 25 25 25 25 25 25 25 25 25 25 25 25 25 25 25 24
23 23 23 23 23 23 23 22 22 22 22 22 23 23 23 23 23 23 23 23 23 23 23 23 23 24 24 24 23 23 23 23 23 23 23 23 23 23 23 23 23 23 23 23 23 23 23 23 23 23 24 24 25 25 25 25 25 25 24 23 22 22 24 24 24 25 25 25 25 25 25 25 26 26 25 26 26 26 25 25 25 25 25 25 25
23 23 23 23 23 23 23 23 23 22 22 23 23 23 22 22 22 23 23 23 23 23 23 23 23 23 23 23 23 23 23 23 23 23 23 23 23 23 23 23 23 23 23 23 23 23 23 23 23 23 24 24 24 25 25 25 25 25 24 23 23 23 24 23 23 25 26 26 26 26 26 26 26 26 26 26 26 26 26 26 26 26 26 25 25
24 24 23 23 23 23 23 23 23 23 23 23 23 23 22 22 22 22 22 22 22 23 23 23 23 23 23 24 23 23 23 23 23 23 23 23 23 23 23 23 23 23 23 23 23 23 23 23 23 24 24 24 24 25 25 25 25 25 25 24 24 24 24 23 23 24 25 26 26 26 26 26 26 26 26 26 26 26 26 26 26 26 26 26 26
24 24 24 23 23 23 23 23 23 23 23 23 23 23 22 22 23 23 23 23 23 23 24 24 24 24 24 24 24 23 23 23 23 23 23 23 23 23 23 23 23 23 23 23 23 23 23 23 23 24 24 24 24 24 24 25 25 25 25 25 25 24 25 24 24 24 24 25 26 26 27 26 26 26 27 27 27 27 27 26 26 26 26 26 26
24 24 24 23 23 23 23 23 23 23 23 23 23 23 23 23 23 23 23 23 23 24 24 24 24 24 24 24 24 24 24 23 23 23 23 23 23 23 23 23 23 23 23 23 23 23 23 23 23 24 24 24 24 24 24 24 25 25 25 25 25 25 25 25 25 24 24 24 25 26 26 27 27 27 27 27 27 27 27 27 27 27 26 26 26
25 24 24 24 24 23 23 23 23 23 23 23 23 23 23 23 23 23 23 23 23 24 24 24 24 24 24 24 24 24 24 24 24 24 23 23 23 23 23 23 23 23 23 23 23 23 23 23 23 24 24 24 24 24 24 24 24 25 25 25 25 25 25 25 25 25 24 24 24 24 25 26 26 27 27 27 28 27 27 27 27 27 27 27 27
25 25 24 24 24 23 23 23 23 23 23 23 23 23 23 23 23 23 23 23 23 23 24 24 24 24 24 24 24 24 24 24 24 24 24 24 24 24 23 23 23 23 23 23 24 23 24 24 24 24 24 24 24 24 24 24 24 24 25 24 25 25 25 25 25 25 24 24 24 23 24 25 25 26 27 27 27 27 28 28 27 27 27 27 27
25 25 24 24 24 23 23 23 23 23 23 23 23 23 23 23 23 23 23 23 23 23 24 24 24 24 24 24 24 24 24 24 24 24 24 24 24 24 23 23 23 23 23 23 24 24 24 24 24 24 24 24 24 24 24 24 24 24 25 24 24 24 24 24 24 25 25 24 24 24 24 25 25 25 27 27 27 27 27 28 27 27 27 27 27
Height
810 809 810 809 811 812 813 814 816 817 818 820 821 822 823 824 824 825 825 826 826 827 828 829 830 830 831 831 832 833 833 834 834 835 835 835 835 835 835 836 836 836 837 838 838 838 839 839 840 840 840 840 840 840 840 841 841 841 842 842 843 843 844 844 845 845 845 845 846 846 846 846 846 846 847 848 848 848 849 849 850 851 851 852 852
811 812 812 811 812 813 815 816 818 819 820 822 823 824 824 825 825 826 826 827 828 829 830 831 831 832 833 833 834 834 835 835 836 836 836 836 836 836 836 837 837 837 838 838 839 838 839 840 840 840 841 841 841 842 842 842 842 843 843 844 844 845 845 846 846 846 847 847 847 847 847 847 847 847 848 849 849 850 850 851 851 852 853 854 854
811 813 813 814 815 815 817 818 820 821 822 823 824 825 825 826 827 828 828 829 830 831 832 832 833 834 834 835 835 835 836 836 837 837 837 837 838 838 838 838 838 838 839 839 839 839 840 841 841 841 842 842 842 843 843 843 844 844 844 845 846 846 847 847 847 847 848 848 848 848 848 849 849 849 850 850 851 851 852 853 853 853 854 855 855
811 811 812 814 816 817 819 820 821 821 822 823 825 825 826 828 828 829 830 831 832 833 833 834 835 835 836 836 837 837 837 838 838 838 838 839 839 839 839 839 839 839 840 840 840 840 841 842 842 842 843 843 844 844 844 844 845 845 845 846 847 848 848 848 848 848 849 849 849 849 849 850 850 851 851 851 852 852 853 854 854 855 855 856 856
814 813 813 814 814 816 817 818 820 821 822 824 826 827 828 829 830 831 832 833 834 834 835 836 836 837 837 838 838 838 839 839 839 840 840 841 841 841 841 841 840 840 841 841 842 842 842 843 843 844 844 844 845 845 845 845 845 846 846 847 849 850 850 850 849 849 850 850 850 851 851 851 852 852 853 853 853 854 855 855 856 856 857 857 858
817 817 818 817 817 818 819 820 822 823 825 827 828 829 830 831 832 833 833 834 835 836 836 837 838 838 839 839 840 840 840 840 840 841 842 842 842 843 843 842 842 842 842 842 843 843 843 843 844 845 845 845 846 846 847 847 847 847 847 848 850 851 851 850 850 851 851 851 852 852 853 853 853 854 854 854 855 855 856 857 858 858 858 859 859
818 819 821 821 823 823 825 825 826 827 828 830 830 831 832 833 833 834 834 835 836 837 837 838 839 839 840 840 841 841 841 841 842 842 843 843 843 843 844 844 843 843 843 843 844 844 844 844 845 846 846 846 847 848 848 849 849 848 848 849 851 852 851 851 851 852 852 853 853 854 854 854 855 855 856 856 857 857 858 858 859 859 860 860 860
819 820 821 823 824 826 828 828 829 830 830 831 831 832 833 833 834 835 836 836 837 838 839 839 840 840 841 841 842 842 842 842 843 844 844 844 844 844 845 846 845 845 845 845 845 846 846 846 846 847 848 848 848 849 849 850 851 850 850 851 853 852 852 852 853 853 854 855 855 856 856 856 857 857 858 858 858 859 859 860 860 861 861 862 862
819 821 822 823 824 826 827 828 829 830 831 832 832 833 833 834 835 836 837 837 838 839 840 840 841 842 842 843 843 843 843 843 844 844 845 845 845 846 847 847 846 846 846 846 847 847 847 847 848 848 848 848 848 848 850 851 852 852 852 852 853 853 853 854 854 855 856 856 857 857 858 858 859 859 859 860 860 860 861 861 862 862 862 863 863
820 821 823 824 825 826 827 829 830 831 831 832 833 833 834 835 836 837 838 839 839 840 841 841 842 843 843 844 844 844 844 844 845 846 846 846 846 847 847 848 848 847 847 848 848 848 848 848 849 849 849 849 849 849 851 852 853 853 853 853 853 854 854 855 856 857 857 858 858 859 860 860 860 861 861 861 862 862 862 863 863 864 864 864 865
820 822 823 824 826 827 828 830 830 831 832 833 833 834 835 836 837 838 839 840 841 841 842 842 843 844 844 845 845 846 846 846 846 847 847 847 847 848 849 849 849 849 849 850 850 850 850 850 851 851 851 851 851 851 852 852 853 854 855 854 854 855 856 857 858 858 859 859 860 860 861 862 862 862 863 863 863 864 864 864 865 865 865 866 866
821 822 824 825 826 828 829 830 831 832 833 834 834 835 836 837 838 839 840 841 842 842 843 843 844 845 845 846 847 847 847 847 847 848 848 848 849 849 850 851 852 852 852 852 852 853 853 853 853 854 853 853 853 853 854 853 853 854 856 856 855 856 857 858 859 860 861 861 862 862 863 863 864 864 864 865 865 865 866 866 866 866 867 867 868
821 823 824 826 827 829 830 831 832 833 833 834 835 836 837 838 839 840 841 842 842 843 844 844 845 846 847 847 848 848 848 848 848 849 849 849 850 851 852 853 853 854 854 854 854 854 855 854 854 854 854 855 855 855 855 855 855 856 857 857 857 858 859 860 861 861 862 862 863 864 864 864 865 866 866 866 866 867 867 867 868 868 868 869 869
822 823 825 826 828 830 831 832 833 833 834 835 836 837 838 839 840 841 842 843 844 844 844 845 846 847 848 848 849 849 849 849 850 850 850 851 852 852 853 854 854 855 856 856 855 855 856 855 854 854 855 855 855 856 856 856 857 857 858 858 859 860 860 861 862 863 863 864 864 865 865 866 866 867 867 867 868 868 868 869 869 869 870 870 870
822 824 826 827 828 830 831 833 833 834 835 836 837 838 839 840 841 842 843 844 845 845 846 846 847 848 849 849 850 850 850 850 851 851 852 853 853 854 853 854 855 856 857 857 857 856 856 857 857 857 857 856 856 857 857 858 858 859 859 860 861 861 862 863 864 864 865 865 866 866 867 867 868 868 868 869 869 869 870 870 870 871 871 871 871
823 824 826 828 829 831 832 833 834 836 836 837 838 839 840 841 842 843 844 845 845 846 847 847 848 849 850 850 850 851 851 851 852 852 853 854 855 855 855 856 857 857 858 859 858 858 858 858 859 859 859 858 858 859 858 859 860 860 861 862 862 863 864 864 865 866 866 867 867 868 868 869 869 870 870 870 871 871 871 871 872 872 872 872 872
823 825 826 828 829 831 832 834 835 836 837 838 839 840 841 842 843 844 845 846 846 847 847 848 849 850 850 851 851 852 852 853 853 853 854 855 856 857 857 858 858 859 859 860 860 860 859 859 859 859 860 860 861 861 860 861 861 862 863 863 864 864 866 866 867 868 868 869 869 869 870 870 871 871 871 872 872 872 873 873 873 873 873 873 874
824 826 827 829 830 831 833 834 836 837 838 838 839 840 841 843 844 845 846 846 847 848 848 849 850 851 851 852 852 853 853 854 854 855 856 856 857 858 858 859 860 860 860 861 861 861 861 861 861 860 861 862 862 862 862 862 862 863 864 865 865 866 867 868 869 870 870 870 871 871 871 872 872 872 873 873 873 873 874 874 874 874 874 875 875
825 827 828 830 831 832 833 835 836 837 838 839 840 841 842 843 844 845 846 847 848 849 850 850 851 851 852 853 853 854 854 855 855 856 857 857 858 859 860 860 861 861 862 862 863 863 863 864 864 863 862 864 864 863 863 863 863 864 865 866 867 868 869 870 871 871 872 872 872 873 873 873 874 874 874 874 874 875 875 875 875 875 875 876 876
827 828 829 831 832 833 834 836 837 838 839 840 841 842 843 844 845 846 847 848 849 850 851 851 852 852 853 853 854 855 855 856 856 857 858 859 859 860 861 861 862 863 863 864 864 864 863 864 865 865 865 865 865 864 864 865 865 866 867 867 868 870 870 871 872 873 873 873 874 874 874 875 875 875 875 875 875 876 876 876 876 876 876 877 877
828 829 831 832 833 834 835 836 837 839 840 841 842 842 844 845 846 847 848 849 850 851 851 852 853 853 854 854 855 856 856 857 857 858 859 860 860 861 862 862 863 864 865 865 865 865 864 864 865 866 866 867 867 866 866 867 867 868 868 869 870 871 872 873 873 874 874 875 875 875 876 876 876 876 876 876 876 876 876 877 877 877 877 878 878
829 830 831 833 834 835 836 838 838 840 841 842 843 843 845 845 847 848 849 850 851 852 852 853 854 854 855 856 857 857 858 858 859 860 860 861 862 862 863 863 864 865 866 867 867 868 867 867 867 867 868 868 868 868 869 869 869 870 870 871 872 873 873 874 874 875 875 876 876 876 876 877 877 877 877 877 877 877 877 878 878 878 878 878 879
829 830 832 833 834 836 837 838 839 841 842 843 844 844 846 846 848 849 850 851 851 852 853 854 855 855 856 857 858 859 859 860 860 861 861 862 863 863 864 865 866 867 867 868 869 869 869 869 869 869 869 869 870 870 870 871 871 871 872 873 874 874 874 875 875 876 876 876 877 877 877 877 877 877 878 878 878 878 878 878 878 879 879 879 879
829 830 832 833 835 836 838 839 840 842 843 844 845 846 847 847 849 850 851 852 852 853 854 855 856 856 857 858 859 860 861 861 861 862 863 863 864 865 865 866 867 868 868 869 870 870 870 871 871 871 871 871 871 871 872 872 872 873 873 874 875 875 875 875 876 876 877 877 877 878 878 878 878 878 878 878 879 879 879 879 879 879 879 880 880
828 830 832 833 835 837 838 840 841 842 843 844 845 846 847 848 849 851 852 852 853 854 855 856 857 857 858 859 860 861 861 862 863 863 864 865 865 866 867 868 868 869 870 870 871 871 871 872 872 872 872 872 873 873 873 874 874 874 874 875 875 876 876 876 876 877 877 878 878 878 878 878 878 879 879 879 879 879 880 880 880 880 880 880 880
828 830 831 833 835 837 839 840 841 842 844 845 846 847 848 849 850 851 852 853 854 855 856 857 857 858 859 860 861 862 862 863 864 864 865 866 867 868 868 869 869 870 870 871 872 872 873 873 873 873 874 874 874 874 875 875 875 875 875 876 876 876 877 877 877 877 878 878 878 878 878 878 879 879 879 879 880 880 880 880 880 881 880 880 881
828 830 832 834 835 837 839 840 842 843 844 846 847 848 849 850 851 852 853 854 855 856 857 858 858 859 860 861 862 862 863 864 865 865 866 867 868 869 869 870 870 871 871 872 872 873 873 874 874 874 875 875 875 875 876 876 876 876 876 876 877 877 877 877 878 878 878 878 878 878 879 879 879 879 879 880 880 880 881 881 881 881 881 881 881
828 830 832 834 835 837 839 840 842 843 845 846 847 848 850 851 852 853 854 855 856 857 858 858 859 860 861 862 862 863 864 865 866 866 867 868 869 869 870 871 871 872 872 873 873 873 874 874 875 875 875 876 876 876 876 877 877 877 877 877 878 878 878 878 878 878 878 878 878 879 879 879 879 879 880 880 880 881 881 881 881 881 881 881 881
828 830 832 833 835 837 839 840 842 843 844 846 848 849 850 851 852 853 854 855 856 857 858 859 860 861 862 862 863 864 865 866 867 867 868 869 870 870 871 871 872 872 873 873 874 874 875 875 875 876 876 876 876 877 877 877 878 878 878 878 878 879 879 879 879 879 879 879 879 879 879 879 879 879 880 880 881 881 881 881 881 881 881 881 881
828 830 832 833 835 836 838 840 841 843 844 846 848 849 850 851 852 853 855 856 857 858 859 860 861 861 862 863 864 865 866 867 867 868 869 869 870 871 871 872 873 873 874 874 874 875 875 875 876 876 876 877 877 877 877 878 878 878 878 879 879 879 879 879 879 879 879 879 879 879 879 879 879 880 880 880 881 881 881 881 881 881 881 881 881
828 830 831 833 835 836 838 840 841 843 844 846 848 849 850 852 853 854 855 856 857 859 859 860 861 862 863 864 865 866 866 867 868 869 870 870 871 871 872 872 873 874 874 875 875 875 876 876 876 877 877 877 877 878 878 878 878 879 879 879 880 880 880 880 880 880 880 880 879 879 879 879 879 880 880 881 881 881 880 881 880 881 881 881 881
827 829 831 833 834 836 838 839 841 843 844 846 848 849 851 852 853 854 855 857 858 859 860 861 861 862 863 864 865 866 867 868 869 870 870 871 871 872 872 873 874 874 874 875 875 876 876 876 877 877 877 877 878 878 878 879 879 879 879 880 880 880 880 880 880 880 880 880 880 880 880 880 880 880 881 881 880 880 880 880 880 880 881 881 881
826 828 831 833 834 836 837 839 841 843 844 846 847 849 851 852 853 855 856 857 858 859 860 861 862 863 864 865 866 867 868 868 869 870 871 871 872 872 873 873 874 874 875 875 876 876 876 877 877 877 878 878 878 879 879 879 879 879 880 880 880 880 881 881 881 880 880 880 880 880 880 880 880 881 881 880 880 880 880 880 880 880 880 881 881
826 828 830 832 834 836 837 839 840 842 844 846 847 849 851 852 854 855 856 857 858 860 860 861 862 863 864 865 866 867 868 869 869 870 871 871 872 872 873 873 874 874 875 875 876 876 877 877 877 878 878 878 879 879 879 879 879 880 880 880 881 881 881 881 881 880 880 881 881 881 880 881 881 881 880 880 880 880 880 880 880 880 880 880 880
825 827 829 831 833 835 837 839 840 842 844 845 847 849 851 852 854 855 856 858 859 860 861 862 862 863 865 866 867 868 868 869 870 870 871 871 872 872 873 873 874 874 875 875 876 876 877 877 877 878 878 879 879 879 879 879 879 880 880 881 881 881 881 881 881 881 881 881 881 881 881 881 881 881 880 880 880 880 880 880 880 880 880 880 880
824 826 828 831 833 835 837 838 840 841 843 845 847 849 850 852 854 855 856 858 859 860 861 862 863 864 865 866 867 868 869 869 870 870 871 871 872 872 873 873 874 874 875 876 876 877 877 877 878 878 879 879 879 880 880 879 879 880 880 881 881 881 881 881 881 881 881 881 881 881 881 881 881 881 880 880 880 880 880 880 880 880 880 880 879
823 825 827 829 832 834 836 838 839 841 843 845 846 848 850 852 853 855 856 858 859 860 861 862 863 864 865 866 867 868 869 869 870 871 871 871 872 873 873 873 874 874 875 876 876 877 877 878 878 878 879 879 880 880 880 879 879 880 880 881 881 881 881 881 881 881 881 881 881 881 881 881 881 881 880 880 880 880 880 880 880 880 879 879 879
822 824 826 828 830 833 835 837 839 841 843 844 846 848 849 851 853 855 856 857 859 860 861 862 863 864 865 866 867 867 868 869 870 871 871 872 872 873 873 874 874 875 875 876 876 877 877 878 878 879 879 879 880 880 880 880 880 880 881 881 881 881 881 881 881 881 881 881 881 881 881 881 881 881 881 881 881 880 880 880 880 879 879 879 878
822 823 825 827 830 832 835 837 839 840 843 844 846 848 849 851 852 854 856 857 858 859 861 862 863 864 865 866 867 867 868 869 870 870 871 872 872 873 873 874 874 875 875 876 876 877 878 878 879 879 879 879 880 880 880 880 880 881 881 881 881 881 881 881 881 881 881 881 881 881 881 881 881 881 881 880 880 880 880 880 879 879 879 878 878
820 822 825 827 829 831 834 836 838 840 842 844 846 847 848 850 852 853 854 856 857 859 860 862 863 864 865 866 867 867 868 869 870 870 871 872 872 873 873 874 875 875 875 876 877 877 878 879 879 879 880 880 880 880 881 881 881 881 881 881 881 881 881 881 881 881 881 881 881 881 881 881 881 881 881 880 880 880 880 879 879 879 878 878 878
819 821 823 825 827 830 832 834 837 839 841 843 845 846 847 848 850 851 853 854 856 858 859 861 862 863 865 866 866 867 868 869 870 870 871 872 872 873 873 874 874 875 875 876 877 877 878 879 879 880 880 880 880 880 881 881 881 881 881 882 881 881 882 881 881 881 881 881 881 881 881 881 880 880 880 880 880 880 879 879 879 878 878 878 878
818 820 822 824 826 828 830 833 835 838 840 842 843 844 846 847 849 850 852 854 855 857 858 860 861 863 864 865 866 867 868 868 869 870 871 872 872 873 873 874 875 875 875 876 877 877 878 879 880 880 880 880 880 880 881 881 881 882 882 882 882 882 882 881 881 881 881 881 881 881 881 880 880 880 880 880 879 879 879 879 879 878 878 878 878
816 819 820 822 825 827 829 831 834 836 838 840 842 844 845 847 849 850 852 854 855 857 858 860 861 862 863 864 865 866 867 868 869 870 871 872 872 873 873 874 875 875 876 876 877 878 878 879 880 880 880 880 880 880 881 881 882 882 882 884 884 884 883 882 881 881 881 881 881 881 880 880 880 879 879 879 879 879 879 879 878 878 878 878 878
815 817 819 821 823 825 827 830 832 834 836 839 841 844 846 847 849 851 852 854 855 857 858 859 860 861 862 863 864 865 866 867 869 870 870 871 872 873 873 874 874 875 876 876 877 878 879 879 880 880 881 881 881 881 881 882 882 882 883 885 885 886 887 884 881 881 880 881 880 880 880 880 879 879 879 878 878 878 878 878 878 878 878 878 878
813 814 816 819 821 823 825 828 830 833 835 838 840 843 845 847 849 851 852 854 855 856 857 858 859 860 861 862 863 864 866 867 868 869 870 871 872 872 873 874 874 875 876 876 877 878 879 879 880 881 881 881 881 882 882 882 883 883 884 885 886 888 888 885 883 881 880 880 880 880 879 879 879 878 878 877 877 877 877 877 878 878 878 878 877
810 812 815 817 819 822 824 826 829 831 834 836 839 842 844 846 847 848 850 851 853 854 855 856 858 859 860 861 863 864 865 866 867 868 869 870 871 872 873 873 874 875 875 876 877 878 879 879 880 881 881 881 882 882 883 883 883 883 883 884 885 887 886 884 885 884 881 880 880 879 879 878 878 878 877 877 876 877 877 877 877 877 877 877 877
808 811 814 816 818 820 823 825 827 830 832 835 837 840 842 844 846 847 847 848 849 851 853 856 857 858 860 861 862 863 864 866 867 868 869 870 871 872 873 873 874 874 875 876 877 878 879 879 880 880 881 881 882 882 883 883 883 883 884 884 884 885 885 884 885 886 885 882 880 879 879 878 878 877 876 876 876 876 876 876 876 876 876 876 876
807 810 812 815 817 819 821 823 826 828 831 833 835 838 840 842 844 846 847 848 849 850 853 855 857 858 859 860 862 863 864 865 866 867 868 870 871 871 872 873 873 874 875 876 877 877 878 879 880 880 881 881 882 882 883 883 883 884 884 884 884 884 884 884 884 885 886 886 882 879 879 878 877 877 876 876 876 876 876 876 876 876 876 876 875
804 807 810 812 815 818 820 822 825 827 829 832 833 836 838 841 843 845 846 847 848 850 853 854 856 857 858 860 861 862 863 865 866 867 868 869 870 871 872 872 873 874 875 875 876 877 878 879 880 880 881 881 882 882 882 883 883 884 884 884 884 884 884 884 884 884 885 886 885 882 880 879 877 876 876 876 876 876 876 875 875 875 875 875 875
802 805 808 811 814 816 819 821 823 825 827 830 832 834 836 839 841 843 844 846 848 850 852 853 855 856 857 859 860 861 862 864 865 866 867 868 869 870 871 872 873 873 874 875 876 877 878 879 880 880 881 881 881 882 882 883 883 884 884 884 884 885 885 884 885 885 885 885 885 883 881 880 879 877 877 876 876 876 876 875 875 875 875 875 874
800 803 806 809 811 814 816 819 821 823 825 828 830 832 835 837 839 841 843 845 846 848 850 851 853 854 856 857 859 860 861 863 864 865 866 867 868 869 870 871 872 873 874 875 876 877 878 879 879 880 880 881 881 882 882 883 883 884 884 884 885 885 885 885 885 885 885 885 885 884 882 881 880 878 877 877 876 876 876 875 875 875 875 874 874
Wind_Speed
15 15 14 15 18 19 20 21 20 20 20 18 18 18 18 18 18 17 16 15 13 12 12 13 13 13 12 12 13 13 12 12 12 12 12 12 11 11 11 11 10 10 10 10 10 10 10 10 10 10 10 11 11 11 12 13 13 13 14 14 14 14 15 14 13 14 14 14 13 13 13 13 14 16 17 17 17 18 19 19 20 20 19 18 18
17 16 16 17 19 20 21 22 20 20 20 19 18 18 18 18 17 16 15 14 13 13 13 14 13 13 13 13 13 12 12 12 12 11 11 11 11 11 11 11 10 10 10 11 11 11 11 10 10 10 11 11 11 11 12 12 13 13 13 14 14 14 14 13 13 13 13 13 13 13 14 13 14 15 16 17 17 18 18 18 19 20 19 18 18
17 17 17 18 20 22 22 23 22 21 21 19 19 18 18 17 16 15 14 14 14 14 14 14 13 13 12 12 12 11 11 11 11 11 11 10 10 10 11 11 11 11 11 12 11 11 12 11 10 11 11 11 11 12 12 12 13 13 13 14 14 13 13 14 13 13 13 13 13 14 14 14 15 15 15 16 16 17 18 18 18 19 19 18 18
19 18 17 18 19 21 22 24 23 22 21 19 18 18 17 16 15 15 15 15 14 14 14 14 13 13 12 12 11 11 11 11 11 11 11 10 10 11 11 11 11 12 12 12 11 11 12 11 11 11 11 11 11 12 12 13 13 13 13 14 14 13 13 13 13 13 13 14 14 15 16 16 16 15 15 16 16 16 17 17 17 18 18 18 17
23 19 17 17 17 18 19 20 20 20 19 18 17 17 17 16 16 15 15 15 15 15 14 14 13 12 12 11 11 11 11 11 11 11 11 10 10 11 11 11 11 11 11 12 12 12 11 11 11 11 10 11 11 11 12 13 14 13 13 14 13 13 13 13 13 13 14 15 16 17 17 16 15 15 15 15 16 16 17 17 17 18 18 18 17
25 22 20 19 18 19 18 17 18 19 19 18 17 17 17 17 16 15 15 15 15 15 14 13 12 12 11 11 11 11 12 12 11 11 11 11 11 11 11 11 11 11 12 12 12 12 11 11 11 11 10 10 11 10 11 11 12 13 14 14 13 13 13 14 14 14 15 16 17 17 16 15 15 14 14 15 15 16 17 17 17 17 17 18 16
25 23 23 23 22 21 20 19 19 19 19 18 18 17 17 16 16 15 15 15 15 14 13 12 12 12 11 11 12 11 11 11 11 11 11 10 11 12 11 11 11 11 12 12 12 11 12 11 11 11 10 10 10 11 10 10 11 12 13 13 13 14 15 14 15 16 16 16 16 16 15 15 14 14 15 15 16 17 17 17 17 16 17 17 16
24 24 24 24 22 21 21 21 20 19 18 18 18 17 16 16 16 15 15 14 14 13 12 12 11 11 11 11 11 11 11 10 10 11 11 10 11 12 11 11 11 11 12 13 11 11 12 12 12 11 11 10 11 11 11 10 10 12 13 13 13 15 15 15 16 16 16 16 16 16 15 14 15 15 15 16 16 17 17 17 16 16 16 16 15
24 23 23 23 21 20 19 20 19 18 18 18 17 16 16 16 15 15 14 14 13 12 12 11 11 11 11 11 11 10 10 9 10 11 11 10 11 11 11 11 11 11 12 12 11 11 11 11 11 10 11 11 11 11 11 11 10 11 12 13 14 15 15 15 16 16 16 16 16 15 15 15 16 16 16 16 17 17 16 16 15 15 15 15 15
24 23 23 22 21 19 18 18 18 17 17 17 17 16 16 16 15 14 14 13 12 11 11 10 10 10 10 10 10 10 9 9 10 10 10 10 10 11 11 11 11 11 12 12 11 11 10 10 9 9 11 10 10 10 11 11 11 11 12 14 15 15 15 15 16 16 16 17 17 17 17 17 17 17 16 16 16 16 15 15 15 14 14 14 14
23 22 22 21 20 18 18 17 16 16 16 17 16 16 16 15 15 14 13 12 11 11 10 10 10 10 10 10 9 9 10 10 10 10 10 9 10 11 11 11 11 11 11 11 10 11 10 9 8 10 10 10 10 11 11 12 13 12 12 14 15 15 15 15 16 16 17 17 18 18 17 17 16 15 15 15 15 15 14 14 14 14 13 13 13
23 23 22 21 19 18 18 17 16 16 16 16 15 16 16 15 14 13 12 11 11 10 10 10 10 10 10 9 9 9 10 10 10 10 10 9 10 10 11 11 11 11 11 11 10 11 10 9 10 11 10 9 11 11 11 12 14 14 13 13 14 15 15 15 16 17 17 18 18 17 17 16 15 14 14 14 14 14 14 13 13 13 13 13 13
23 23 21 20 18 18 17 17 16 16 15 15 15 16 15 14 13 12 12 11 10 9 10 10 10 9 9 8 9 9 10 9 9 10 10 9 10 10 11 10 10 10 11 11 10 11 11 10 10 10 11 10 10 11 12 13 14 15 14 13 14 15 15 15 16 16 17 17 17 17 16 16 15 14 14 14 13 13 13 13 13 13 13 13 12
23 23 21 20 19 18 17 16 16 15 15 14 14 14 14 13 12 11 11 10 9 9 9 10 9 9 8 8 9 9 9 8 9 10 10 10 9 10 10 10 10 11 10 10 11 10 10 11 10 11 12 12 11 11 13 13 13 14 14 14 14 14 14 13 14 15 16 16 16 15 15 15 14 14 13 13 13 13 13 13 13 13 13 12 11
23 22 21 21 19 17 16 15 15 15 14 14 14 13 13 12 11 11 10 10 9 9 9 9 9 8 8 8 9 9 8 8 9 9 10 9 9 9 10 10 10 10 10 10 10 10 10 11 11 11 12 12 12 12 13 13 13 13 13 13 13 13 12 13 15 15 16 15 15 14 14 14 13 13 13 13 13 13 13 13 13 13 12 11 10
22 22 21 21 18 17 16 14 14 14 13 13 13 13 12 11 11 10 10 9 9 9 9 9 9 8 8 8 8 8 8 8 8 9 9 9 9 10 10 9 9 10 10 10 10 10 10 11 12 12 12 12 12 12 13 13 12 13 12 12 12 12 12 13 15 15 15 14 14 14 14 13 13 13 13 13 13 13 12 12 12 11 11 10 10
21 21 20 18 16 16 15 14 14 13 12 12 12 12 12 11 10 10 9 9 8 9 9 9 9 8 8 8 8 8 8 8 8 9 9 9 9 9 9 9 10 9 9 9 9 10 9 11 11 11 12 11 11 12 12 13 12 12 12 11 11 11 11 12 14 14 14 14 13 13 13 12 12 12 12 13 12 12 12 11 11 10 10 9 9
21 20 19 16 15 15 15 14 14 13 12 11 11 12 11 10 9 9 9 8 8 8 8 9 9 8 8 7 8 8 8 9 9 9 9 8 8 9 9 10 10 9 9 9 9 9 9 11 11 11 12 11 11 12 12 12 13 13 12 11 11 10 10 10 12 12 13 13 13 13 12 12 11 11 11 11 11 11 10 10 9 9 8 8 7
21 19 18 16 15 15 15 15 14 12 11 11 11 11 10 9 9 9 9 8 8 8 8 8 8 8 8 7 8 8 8 8 8 8 8 8 8 8 8 9 9 9 9 9 8 8 8 10 11 12 12 11 12 12 12 13 13 13 12 11 10 10 10 10 10 11 11 12 12 12 11 11 10 10 10 10 9 9 9 9 8 8 7 7 7
20 19 18 17 16 16 15 15 14 12 11 11 11 11 10 9 9 9 8 8 9 9 8 8 8 8 7 7 7 8 8 8 8 8 9 9 8 8 8 8 8 9 9 9 9 8 7 9 11 12 12 11 11 12 12 13 13 13 12 11 9 8 9 9 9 9 10 10 10 11 11 10 9 9 8 8 7 8 7 7 7 7 6 6 6
20 19 18 18 17 16 16 15 15 12 11 12 11 12 11 9 9 9 8 9 9 9 8 8 8 8 7 7 7 8 8 8 8 8 9 9 8 8 8 8 8 9 9 9 8 8 7 8 10 11 11 11 12 12 11 11 11 12 11 9 8 7 8 8 8 8 8 9 9 9 9 9 8 8 7 6 6 6 6 6 6 6 6 5 5
20 19 18 18 17 17 16 16 15 13 12 12 11 11 11 10 10 9 9 9 9 9 9 8 8 7 6 7 7 8 8 8 8 8 8 8 8 8 8 8 8 9 9 8 8 8 7 8 9 8 10 11 11 11 11 11 10 10 10 8 7 6 6 6 7 7 7 8 8 8 8 7 7 7 6 5 5 5 5 5 5 4 5 5 5
20 19 19 18 18 18 17 16 16 14 13 13 12 12 11 11 11 10 9 9 9 9 9 9 9 7 7 7 7 8 8 9 8 8 8 8 8 9 8 7 8 8 9 9 8 7 7 8 8 8 9 10 10 9 10 9 8 8 8 7 7 6 5 4 5 5 6 6 7 6 6 6 6 6 5 4 4 4 4 3 3 3 4 5 5
21 19 19 19 19 18 17 16 16 15 14 14 13 12 11 11 11 11 10 10 9 9 9 9 9 7 7 7 7 8 8 9 8 8 8 8 9 9 8 7 8 8 9 9 8 7 7 8 7 7 7 8 8 8 7 6 5 5 6 6 6 5 5 3 4 4 5 5 5 5 5 4 5 5 4 3 3 3 3 2 2 3 3 4 4
21 19 19 20 19 18 17 17 16 16 16 15 14 13 12 12 12 12 11 11 10 10 9 9 8 7 7 7 8 8 8 8 8 8 9 9 9 9 8 8 8 7 8 9 8 7 7 6 6 6 5 5 6 6 6 4 2 3 3 4 4 4 4 3 3 4 4 5 4 4 4 4 3 4 3 3 2 2 2 2 2 2 3 3 3
21 20 20 20 19 18 18 18 17 16 16 16 15 13 14 13 13 13 12 11 10 10 9 8 8 8 8 8 8 8 8 8 7 8 9 9 8 8 8 7 7 7 8 8 7 6 6 5 5 4 4 3 3 3 4 3 1 1 2 3 4 4 4 3 2 2 3 4 4 4 4 3 3 3 3 3 2 1 1 1 2 2 2 2 2
21 21 21 20 19 19 18 18 17 17 17 16 15 14 14 14 14 14 13 12 11 11 9 9 8 8 8 8 8 8 7 7 7 7 8 8 7 7 7 7 7 7 6 6 5 5 5 5 4 3 2 2 2 1 1 1 1 2 3 3 4 4 5 4 2 1 2 3 3 4 4 4 4 3 3 2 1 1 0 1 2 2 2 2 2
22 21 21 20 20 19 18 17 17 17 17 17 16 15 14 14 14 14 13 12 12 11 10 9 8 8 8 8 8 7 7 7 6 6 7 7 6 6 6 6 6 5 4 4 4 4 4 4 3 2 2 2 2 2 2 2 1 3 4 4 4 4 4 4 2 1 1 2 2 3 4 5 5 4 3 2 2 2 1 1 2 2 2 3 3
22 22 22 21 20 19 18 18 17 18 18 17 16 16 15 15 15 15 14 12 12 11 10 9 9 8 8 8 7 6 6 6 6 6 6 6 6 6 5 5 4 3 3 2 3 3 3 3 3 2 2 2 3 3 3 3 3 3 4 4 4 4 4 4 3 1 0 1 1 2 3 3 4 5 5 4 3 2 2 3 3 3 3 4 3
23 22 22 22 21 20 19 19 19 19 19 18 17 17 16 16 16 15 14 13 12 11 11 10 10 9 9 8 6 5 5 5 6 5 5 5 5 5 4 3 2 2 2 2 2 2 3 3 2 2 2 2 3 3 3 4 5 5 5 5 5 4 4 4 3 1 1 0 1 1 1 1 2 4 5 5 4 4 4 4 4 4 4 4 4
23 22 22 22 22 22 21 21 20 20 20 19 18 17 17 17 16 15 14 13 13 12 12 11 10 10 9 8 6 5 5 4 4 4 5 4 4 3 3 2 2 2 2 2 2 2 3 2 2 1 1 2 3 3 4 5 6 6 5 5 5 4 3 3 3 2 2 1 1 2 1 0 1 1 2 3 4 4 4 4 4 4 4 4 4
24 24 23 23 23 23 22 22 21 21 21 20 19 18 18 18 16 15 15 14 13 13 12 11 11 10 9 8 6 5 5 4 4 3 4 4 3 3 3 3 2 2 3 3 3 3 3 2 2 1 1 2 3 3 4 5 5 5 5 4 4 3 3 3 3 3 2 2 2 2 2 1 1 1 1 2 2 3 3 3 4 4 4 4 4
25 24 23 23 24 24 23 23 22 21 21 21 20 19 18 18 17 16 15 15 14 13 13 12 11 10 9 8 7 6 5 4 4 3 3 4 4 4 4 3 3 3 4 4 4 4 4 3 3 2 2 2 3 3 4 5 6 5 4 3 3 3 4 3 3 3 3 3 3 3 3 3 3 2 2 3 3 3 3 3 4 4 4 4 4
24 24 24 24 24 24 23 23 23 22 22 21 20 20 19 18 17 16 15 15 14 13 13 12 11 10 9 8 7 7 5 5 4 3 4 4 5 5 5 5 4 5 5 4 4 5 5 4 4 3 2 3 3 3 4 5 5 5 4 3 3 3 4 4 3 3 3 3 4 4 4 4 4 4 4 4 4 4 5 5 5 5 5 5 5
25 25 25 25 24 24 24 24 24 23 22 21 21 20 19 19 18 17 16 16 14 14 13 13 12 10 9 8 8 7 6 5 4 4 4 5 5 5 5 5 6 6 5 5 5 5 5 5 4 3 3 3 3 4 6 6 5 5 4 3 3 4 4 4 4 3 3 3 4 4 5 5 5 5 5 5 5 5 6 6 6 7 7 7 7
26 26 26 25 24 24 24 24 24 24 23 22 21 20 19 19 18 17 17 16 15 14 14 13 11 10 10 9 9 8 7 6 5 5 5 6 5 5 5 5 7 7 6 5 5 5 5 5 4 4 4 4 4 5 6 6 5 5 5 5 4 4 5 5 4 4 4 4 4 4 5 5 5 5 6 6 6 6 6 7 7 8 8 8 8
27 27 27 26 25 25 25 24 25 25 24 23 21 20 20 19 19 18 17 16 16 15 14 13 12 11 11 10 10 9 9 8 7 7 6 6 6 5 5 6 6 7 6 6 5 5 5 5 4 5 5 4 4 5 6 5 3 5 6 6 6 6 5 5 5 5 6 6 5 5 5 5 5 5 6 7 7 7 7 7 8 8 9 9 9
28 28 28 28 27 26 25 25 25 25 24 23 22 21 20 19 19 18 18 17 16 15 14 14 13 12 12 11 11 11 10 9 8 8 8 7 6 6 6 7 6 6 6 6 6 5 5 4 5 5 5 5 5 4 4 3 2 4 6 7 7 7 6 7 7 7 7 7 7 7 6 6 6 6 6 7 7 7 7 7 8 8 9 9 10
28 28 28 28 27 26 26 25 25 25 24 23 22 21 20 20 19 19 18 17 17 16 15 14 13 13 13 12 12 11 11 11 10 9 9 8 7 7 7 8 7 6 6 7 6 5 4 4 5 5 4 4 5 3 2 2 1 1 4 6 6 7 7 8 8 9 8 8 8 8 8 8 8 7 7 7 7 7 7 7 8 8 9 9 10
29 29 29 28 28 27 26 25 25 25 25 24 23 21 21 21 20 20 19 18 18 17 15 15 14 14 14 13 12 11 11 11 10 10 9 9 8 8 8 7 7 6 7 6 6 5 4 4 4 3 3 4 5 4 3 3 1 0 1 3 3 4 6 7 7 8 8 8 8 9 9 9 9 9 9 9 8 9 8 8 9 9 9 9 9
28 29 30 29 29 28 27 27 26 25 26 26 25 24 23 23 22 22 21 20 19 18 16 15 15 15 15 14 13 12 11 11 11 10 10 9 9 8 8 8 7 7 7 6 6 5 4 4 3 2 2 3 4 5 4 3 2 1 1 1 2 3 5 6 7 8 8 8 9 9 10 11 11 11 10 11 11 11 10 10 10 10 10 9 9
28 29 31 31 30 29 29 29 27 27 27 27 27 26 25 23 23 23 22 20 20 19 18 17 16 16 16 15 15 14 13 12 11 10 10 10 9 8 8 8 7 7 7 7 7 6 6 5 4 3 2 2 3 4 4 3 2 1 0 1 2 3 5 6 7 9 9 9 10 11 12 12 13 12 12 12 13 12 11 10 10 10 10 10 10
30 30 31 32 31 31 30 29 29 29 29 28 27 26 25 23 22 21 21 20 20 19 18 17 17 16 17 16 16 16 15 13 12 11 10 10 9 8 8 8 7 7 8 8 8 8 8 7 5 3 2 2 2 2 2 1 2 3 1 2 2 2 3 5 7 9 10 11 11 12 12 13 14 13 13 13 13 12 11 11 11 10 10 10 11
29 31 32 32 32 32 32 31 30 30 29 29 28 27 24 22 20 19 19 19 19 18 18 18 17 17 17 17 17 17 16 15 14 12 11 10 9 8 8 8 8 8 8 9 9 8 8 7 6 4 2 2 1 2 3 1 1 4 1 1 0 1 1 3 7 8 8 10 11 11 12 13 13 13 14 14 13 13 12 12 12 11 11 11 11
29 31 32 32 32 33 33 32 31 30 30 29 28 26 24 22 20 18 17 18 18 18 18 19 18 18 18 18 18 18 17 17 15 13 12 11 10 8 8 8 8 8 9 9 8 8 7 7 6 5 3 2 2 3 4 1 2 4 2 0 1 1 1 2 6 5 6 8 10 11 12 12 13 13 13 14 14 14 14 14 13 12 12 12 12
30 32 33 33 33 33 33 33 32 31 31 30 29 27 25 24 22 21 20 20 20 20 21 21 20 19 18 18 18 18 18 18 17 15 13 12 10 9 8 9 9 9 9 8 7 7 6 6 6 6 4 3 2 3 5 3 3 3 4 3 2 2 2 3 2 2 6 8 8 9 11 12 13 14 14 15 16 16 15 15 15 14 13 13 13
31 32 32 33 33 33 33 33 33 32 31 31 30 29 27 26 25 25 25 25 24 24 24 22 21 19 18 18 18 18 18 18 17 16 14 13 11 10 9 9 9 9 8 8 7 6 6 6 6 6 6 4 3 3 3 3 3 2 3 5 6 5 6 4 1 1 4 6 8 9 9 10 12 14 15 15 15 15 14 14 14 14 14 14 15
31 31 31 32 33 34 34 34 33 33 32 32 31 31 30 28 27 27 26 26 26 25 24 23 21 20 20 20 20 19 18 17 16 15 15 14 13 11 10 10 10 9 8 8 7 6 6 6 6 7 6 5 4 4 3 4 4 3 3 5 6 6 6 4 2 2 0 2 7 8 9 12 12 11 11 11 12 13 13 13 13 14 14 14 15
31 31 32 33 34 33 33 33 33 33 33 32 32 32 31 30 29 28 27 27 26 25 23 22 22 22 22 22 21 20 18 17 16 15 16 16 14 12 11 10 11 10 8 7 7 7 6 6 7 6 6 6 5 5 5 4 4 4 4 5 5 5 5 4 4 4 0 1 3 3 10 15 13 10 10 10 11 11 11 12 12 12 13 13 14
32 32 33 33 33 33 33 33 34 34 34 34 33 33 32 31 30 29 29 27 25 24 23 22 22 22 23 23 22 21 20 18 17 16 16 16 15 14 12 11 11 10 9 8 7 7 7 7 7 6 6 6 5 5 5 4 4 4 3 5 5 4 4 4 4 4 2 2 2 4 9 12 10 11 11 11 12 11 11 11 11 12 12 13 14
31 31 32 32 33 33 33 34 35 34 34 34 34 34 33 33 31 31 30 29 26 25 24 23 22 22 22 23 23 22 21 19 18 18 17 17 16 16 15 13 11 10 9 9 8 7 7 7 7 6 6 6 6 5 5 5 5 4 4 5 5 5 5 5 6 6 4 3 2 5 10 11 10 11 12 13 12 10 11 11 11 11 11 12 13
Wind_Direction
136 123 125 125 125 130 127 125 127 126 127 126 124 125 125 125 123 122 120 118 118 119 118 114 113 112 110 108 106 104 104 105 105 104 103 103 102 101 100 101 106 110 115 115 114 118 116 112 110 106 105 105 106 105 105 106 109 111 110 107 105 104 104 105 108 105 101 99 98 99 100 101 101 101 102 105 108 109 108 107 106 101 95 93 94
139 132 132 128 129 130 128 128 128 128 127 127 128 128 127 126 125 125 125 123 120 117 114 111 108 107 105 104 104 103 103 103 103 103 103 103 103 102 101 102 105 108 109 108 110 116 114 109 108 108 108 107 107 107 107 109 112 112 110 108 106 105 105 105 105 103 101 101 101 100 101 100 99 97 99 104 109 110 108 106 105 101 98 94 94
137 136 133 132 135 133 133 133 131 130 129 128 128 129 129 127 128 128 127 123 117 115 113 111 108 107 107 106 105 104 103 103 105 105 105 105 106 104 102 101 101 103 104 104 105 108 109 108 108 110 110 109 108 108 109 111 112 112 111 111 108 107 106 107 106 105 104 103 103 103 102 99 97 97 99 103 108 110 107 106 104 102 100 96 95
135 132 127 130 134 135 135 133 131 131 127 127 128 130 132 131 131 128 125 121 119 118 115 112 111 110 108 107 107 106 106 105 105 104 104 105 104 101 99 98 97 99 102 102 102 102 105 109 110 110 110 111 111 112 113 113 113 113 112 111 108 106 108 110 110 107 104 106 105 104 102 100 98 98 100 102 105 108 108 107 104 103 102 98 95
138 130 125 127 126 126 127 126 128 128 126 129 131 134 137 134 130 127 126 124 121 118 116 115 113 112 109 108 107 106 106 104 101 99 98 97 97 96 94 96 98 98 99 98 100 103 103 106 109 108 110 114 114 116 116 115 115 115 113 110 105 104 108 109 109 107 107 110 109 105 103 101 101 100 101 101 105 107 107 107 106 105 102 97 95
141 135 134 135 131 128 128 129 130 131 133 137 139 138 137 134 130 129 127 124 121 118 118 116 115 112 110 109 104 101 100 100 98 97 95 94 96 95 93 95 98 100 99 96 97 101 102 102 105 108 113 117 117 114 111 112 116 117 113 110 107 106 106 105 108 111 111 112 109 106 103 102 101 101 101 101 103 105 105 108 109 106 100 95 95
142 139 139 140 141 139 138 138 138 139 140 143 141 137 135 132 130 127 125 123 122 121 119 117 116 113 109 105 100 99 97 98 99 97 96 98 100 96 95 96 96 96 96 94 94 97 101 100 99 105 112 117 116 111 110 113 115 116 114 110 108 107 105 105 110 113 113 111 108 105 103 102 102 101 101 100 101 103 105 107 107 103 98 95 94
144 142 141 140 140 141 141 140 142 143 141 141 136 134 133 129 127 126 124 124 124 124 122 119 117 113 108 104 99 99 97 99 101 100 100 99 100 98 97 96 95 93 92 92 92 91 94 95 96 102 108 111 112 112 113 116 115 114 114 111 107 107 107 108 112 113 112 109 105 102 101 101 102 100 100 101 101 103 104 104 103 100 96 94 94
145 143 141 139 137 139 140 140 141 139 138 135 132 130 129 127 127 126 123 123 124 125 123 121 118 113 107 103 100 99 99 101 101 101 103 101 100 99 95 94 92 92 93 93 91 88 88 91 94 98 103 106 110 113 112 113 114 114 114 110 108 110 111 112 115 114 110 105 101 99 98 99 100 99 99 100 100 100 102 101 100 97 94 92 93
147 144 142 140 137 139 141 141 139 136 135 133 130 129 128 128 126 124 123 124 125 124 124 122 119 112 105 102 99 99 99 98 98 99 101 102 100 98 95 95 94 93 93 91 88 87 86 90 93 94 95 99 105 110 114 117 116 115 114 111 111 113 113 116 117 114 107 103 102 100 98 97 96 96 96 96 97 97 99 99 98 95 91 91 95
148 146 144 141 138 139 142 141 138 135 134 132 131 131 130 129 127 126 126 127 125 124 125 124 119 111 104 100 98 98 96 93 92 94 97 99 97 96 96 96 95 94 92 89 86 86 83 82 83 84 89 97 103 107 113 120 118 115 116 114 114 114 115 118 116 111 107 106 104 101 98 95 93 93 94 95 96 98 98 97 96 93 90 94 101
149 149 146 141 138 140 143 142 140 138 136 133 132 132 131 129 129 129 129 129 126 126 126 123 119 110 104 101 98 96 93 92 92 93 93 94 95 94 93 93 94 93 93 91 87 85 80 72 67 73 82 90 100 108 112 117 118 117 119 117 115 114 115 117 113 109 109 108 105 102 100 98 96 96 96 97 98 98 97 96 94 92 93 100 107
150 150 147 142 140 143 144 144 142 140 138 134 132 131 131 131 130 131 131 130 127 126 125 121 117 111 107 105 101 96 93 93 93 95 94 93 93 94 95 95 94 92 93 91 87 85 83 76 73 81 86 85 94 108 111 113 117 118 119 117 115 115 115 114 112 111 111 109 105 103 101 100 100 99 99 98 98 98 97 95 93 94 99 106 108
151 151 148 144 142 144 146 145 143 142 142 137 134 133 133 134 132 134 133 130 128 127 125 121 117 112 111 109 102 98 97 94 91 94 94 92 92 95 97 94 95 94 91 87 87 86 85 83 82 87 91 91 93 102 107 111 116 118 117 116 116 117 115 113 115 116 114 110 107 106 103 101 101 101 100 100 100 99 98 97 98 101 106 108 107
153 151 149 145 142 147 149 147 145 145 146 141 138 138 138 137 135 136 133 131 132 129 125 123 119 115 114 109 103 100 99 95 92 92 92 92 91 93 92 90 93 95 92 88 86 82 78 81 84 84 87 90 93 100 107 111 114 114 115 116 119 121 114 111 117 120 117 113 110 106 102 102 102 102 103 103 103 102 103 105 106 107 107 107 105
153 151 150 147 146 150 151 149 149 147 148 144 143 144 141 139 137 137 135 133 132 128 126 123 119 116 115 109 105 101 96 95 93 91 89 88 88 90 94 95 94 93 92 91 85 81 77 78 83 88 86 85 92 102 106 109 109 109 112 114 118 119 113 114 120 121 118 114 110 106 104 104 104 105 105 105 107 108 109 109 108 107 105 104 102
154 153 152 149 150 152 152 152 151 150 149 148 148 148 144 140 139 140 139 136 131 129 127 123 120 116 112 109 105 99 98 100 97 92 88 87 89 92 98 101 98 93 91 91 85 83 81 77 76 80 84 85 91 97 101 105 105 104 106 108 113 114 114 120 123 122 118 114 111 106 105 107 106 107 107 108 109 110 110 109 107 105 103 101 98
157 157 155 154 155 155 156 155 155 156 154 153 153 151 146 142 142 142 141 137 130 128 128 123 122 117 110 109 103 98 100 99 95 91 89 89 90 92 94 97 96 93 91 89 84 81 81 81 77 76 81 84 86 89 93 98 100 100 100 102 105 110 116 123 126 124 120 117 113 108 108 108 108 109 109 110 111 111 110 109 108 107 106 104 101
162 162 160 159 160 160 160 158 162 162 160 160 156 152 147 145 144 143 142 139 134 130 129 126 122 117 109 109 104 100 98 94 95 94 92 90 88 89 94 97 96 94 91 89 86 82 81 86 86 82 82 83 84 86 88 92 97 100 100 101 103 109 119 126 129 127 123 120 117 113 111 110 109 110 111 111 112 112 113 112 111 110 109 108 106
165 167 166 166 167 166 165 164 167 167 164 164 159 154 149 147 146 144 146 142 139 133 130 128 121 115 113 113 109 107 103 99 97 92 89 87 88 92 96 97 95 96 94 91 90 86 80 83 88 88 86 85 85 85 87 90 95 101 103 103 104 112 120 126 131 131 128 124 120 116 113 112 112 112 113 112 113 112 112 112 110 108 107 108 105
169 171 171 172 173 171 169 169 171 172 167 166 164 159 155 154 149 147 150 145 141 136 133 130 122 119 123 120 114 110 106 100 96 91 89 88 91 100 106 104 101 103 99 96 97 90 77 76 81 86 89 88 87 88 90 91 91 95 96 98 103 112 119 125 131 134 134 131 126 120 117 115 114 116 117 115 113 110 109 105 101 102 102 100 97
171 173 175 176 178 176 174 174 174 176 170 168 170 165 162 158 152 151 152 146 143 143 141 136 131 130 128 120 114 111 104 98 95 97 96 94 95 100 108 110 107 105 103 101 102 98 87 83 82 81 85 84 83 86 91 95 93 88 86 90 98 108 117 123 129 135 139 138 133 126 123 119 118 121 123 120 113 109 106 93 90 95 96 96 93
173 175 177 180 182 180 179 178 177 179 175 172 173 169 166 160 154 154 151 148 150 151 148 143 141 138 130 124 118 112 104 99 99 102 103 100 99 102 104 108 107 106 107 106 102 101 97 96 95 89 86 82 79 81 87 96 97 91 88 88 89 94 107 125 135 138 140 142 138 131 129 129 129 129 127 125 116 110 103 85 85 87 86 88 83
176 176 177 181 186 184 182 181 181 183 179 176 174 170 168 163 158 157 158 157 157 156 155 152 147 140 135 133 125 118 114 110 109 111 108 103 101 103 105 110 113 109 110 111 109 107 107 105 103 99 93 87 81 78 80 83 86 88 87 83 78 79 87 116 147 150 148 149 147 140 141 144 141 135 131 130 119 112 99 71 68 71 72 75 73
176 177 178 182 188 186 182 183 186 186 183 179 176 172 171 168 163 163 166 164 163 161 161 158 148 142 142 140 133 129 128 121 117 117 112 106 105 108 112 117 117 115 112 113 114 114 115 111 107 110 105 93 83 80 81 73 59 59 64 56 49 60 68 89 143 163 166 167 165 160 160 163 154 147 151 149 139 125 96 42 27 42 59 63 59
177 178 179 184 190 188 184 186 189 188 184 182 179 177 174 173 169 168 170 168 169 166 162 159 149 147 146 144 141 138 136 127 123 124 118 115 115 117 119 119 117 116 113 110 111 113 117 118 119 126 118 107 96 94 91 77 32 336 356 8 14 30 41 57 112 162 183 189 187 187 189 188 178 172 174 169 166 156 88 23 3 11 38 44 30
178 181 182 185 191 189 187 188 189 188 185 184 184 183 179 178 174 171 173 172 173 170 166 163 154 153 151 149 147 143 139 130 130 131 127 125 122 124 124 121 117 115 112 106 108 113 117 123 131 140 142 141 140 146 136 82 302 306 319 336 350 4 19 34 63 144 199 215 214 216 217 214 206 198 195 186 197 228 298 334 328 338 352 353 345
178 182 185 187 191 191 189 188 188 188 187 186 187 187 184 181 179 177 177 177 176 174 171 165 158 159 157 154 152 147 142 134 136 137 133 131 128 129 127 123 120 116 115 109 111 119 123 130 143 167 189 220 225 234 255 252 261 294 312 324 333 340 357 15 33 99 196 228 240 241 234 227 221 218 215 206 230 271 284 281 289 302 308 318 316
180 183 186 189 192 192 190 188 187 189 189 189 190 191 187 183 184 183 180 181 180 178 175 169 163 165 163 161 159 153 149 143 143 144 141 137 132 131 130 126 124 125 125 118 123 131 137 144 153 183 222 246 248 254 262 257 261 279 296 310 319 324 332 352 8 27 151 232 263 267 243 226 219 218 219 214 219 244 262 267 273 280 288 299 305
182 185 188 190 193 194 193 192 191 192 191 191 193 193 189 186 188 187 185 186 185 183 180 174 171 171 170 170 167 161 156 153 151 152 149 144 139 138 141 140 137 139 135 132 145 155 159 154 153 170 215 246 255 258 259 266 274 277 284 296 308 313 314 329 343 336 323 264 263 268 244 218 216 211 212 215 218 224 238 254 265 273 282 287 291
184 186 190 192 194 196 197 196 196 197 195 194 196 196 192 190 191 190 190 190 189 188 185 182 180 176 175 178 175 166 163 161 160 162 163 164 163 161 167 163 155 157 156 167 179 182 178 170 169 177 215 237 249 264 269 273 277 276 277 288 300 301 301 315 321 310 296 274 263 267 264 237 231 219 207 214 222 226 232 242 253 261 269 276 286
187 189 192 193 194 198 200 199 200 200 199 198 198 199 197 193 194 194 194 194 193 193 190 188 187 182 180 184 186 176 174 179 178 183 188 193 196 198 202 189 185 192 189 193 195 195 195 197 199 202 232 234 244 265 275 279 282 285 280 285 294 286 287 298 302 301 293 278 274 280 289 291 275 275 265 253 251 248 248 249 252 257 264 266 277
189 191 192 193 196 199 201 202 203 204 203 201 200 202 200 197 197 197 197 197 197 197 195 192 191 189 188 189 195 192 188 195 198 211 225 230 228 227 224 208 201 204 205 208 205 204 210 214 216 226 236 238 259 270 279 287 287 286 283 282 280 273 271 278 289 298 297 286 279 279 281 283 279 274 274 272 272 272 272 273 273 273 278 278 279
188 190 192 194 197 199 201 203 204 206 206 204 203 204 203 200 200 199 199 201 200 201 200 197 196 196 199 199 200 200 195 199 206 219 239 247 244 239 229 215 207 205 207 211 210 214 223 228 228 240 250 255 280 284 284 296 291 276 273 269 262 262 260 263 276 286 293 289 282 278 276 278 279 277 274 271 273 278 279 280 285 287 291 294 293
188 190 194 195 195 198 201 203 205 206 206 205 205 205 205 202 202 200 199 203 203 205 205 203 202 204 210 213 212 208 201 205 215 223 239 247 248 243 227 214 209 208 208 206 209 219 230 239 241 254 269 272 289 286 281 293 286 260 256 256 250 253 252 256 263 274 288 290 287 282 279 279 279 279 278 278 279 281 285 288 290 293 296 299 299
190 191 193 195 195 197 200 203 206 206 206 207 206 207 207 205 204 201 200 204 206 208 208 208 210 211 216 221 221 218 212 212 220 229 240 246 248 244 228 214 211 213 212 208 213 224 232 240 247 263 273 269 274 276 281 295 281 248 246 247 246 250 252 256 259 268 279 285 290 287 283 283 282 283 281 281 285 285 288 292 295 298 298 299 301
193 192 193 194 195 197 200 203 206 207 207 208 209 210 209 208 207 203 202 206 208 209 210 211 214 216 219 222 223 225 224 220 221 230 238 245 248 242 229 214 209 214 218 220 222 226 230 233 243 261 270 261 257 270 286 300 275 238 241 245 249 253 257 263 268 272 275 280 289 289 291 293 289 290 289 288 290 292 293 294 297 300 300 301 303
194 195 195 197 197 197 200 204 207 210 210 209 211 212 211 211 210 208 207 208 212 213 212 214 215 216 219 220 224 228 230 228 226 231 235 241 242 236 225 210 208 216 224 226 222 222 229 237 245 254 260 253 251 270 295 309 298 241 244 250 257 261 267 273 275 275 277 284 290 292 295 294 293 296 296 298 299 300 302 303 303 303 306 308 309
195 196 197 198 199 199 200 203 208 211 211 211 211 211 212 213 213 212 213 213 215 216 216 217 216 217 219 219 223 228 231 231 228 230 232 233 230 223 216 210 213 222 229 225 214 216 233 247 249 244 245 242 247 263 280 300 348 281 258 258 262 269 273 273 275 278 283 289 292 295 297 294 296 298 299 303 305 306 309 310 310 310 313 314 313
195 196 196 197 198 199 200 203 207 211 211 210 210 210 210 212 214 215 216 216 215 216 218 218 217 219 221 222 225 229 233 229 224 225 225 223 219 215 211 213 221 227 230 223 212 220 238 252 256 246 239 235 245 259 264 266 279 46 261 261 265 273 273 270 271 279 285 292 295 296 298 299 298 299 303 305 305 308 311 314 316 316 320 322 321
194 195 194 195 198 198 200 202 205 209 209 209 209 209 208 207 209 212 215 215 214 216 218 217 219 221 223 228 230 231 233 227 220 220 220 217 214 213 213 216 223 228 229 222 218 229 242 256 267 257 249 242 245 252 254 249 219 182 225 271 287 281 277 278 280 287 291 293 298 298 299 301 301 302 304 304 305 307 310 314 317 320 322 325 328
193 194 194 195 197 199 201 202 204 207 209 210 210 210 210 209 208 210 214 214 214 215 216 216 219 223 227 234 237 235 234 227 219 219 219 216 214 218 220 220 224 228 228 222 220 230 243 256 265 261 263 261 247 239 236 227 203 188 23 339 327 308 288 288 292 296 298 298 300 302 302 302 305 309 308 303 303 305 308 312 314 316 320 323 327
193 194 196 196 196 198 201 202 203 206 209 211 212 212 214 214 214 213 213 214 215 215 216 219 223 229 234 240 240 236 235 229 222 223 223 219 221 226 228 227 227 229 229 224 222 230 242 253 262 263 264 275 259 209 194 208 201 181 84 17 350 347 309 296 300 295 294 299 301 303 305 306 309 312 310 306 305 306 306 309 310 314 317 321 323
193 195 196 196 196 198 200 201 203 206 208 210 213 214 215 216 218 219 218 217 217 217 220 225 231 235 239 242 237 234 234 231 227 231 229 227 230 233 235 234 230 230 230 227 228 233 240 249 257 256 253 271 254 184 162 73 223 197 131 47 127 17 337 318 323 306 290 293 300 305 307 309 313 313 310 308 309 309 307 306 307 312 317 319 321
194 196 196 196 197 199 201 202 203 206 208 210 212 213 213 212 211 213 216 217 218 219 220 225 231 234 237 237 233 231 232 231 234 237 234 234 237 240 240 235 230 230 230 231 231 232 235 243 246 241 236 246 238 205 203 265 296 232 221 136 53 5 267 312 331 321 305 297 297 305 309 310 314 315 312 310 311 310 308 307 307 310 315 318 319
197 199 198 198 199 201 202 203 204 205 207 208 209 211 210 208 206 203 203 205 210 216 218 221 226 229 231 231 230 232 233 233 236 237 235 235 238 242 240 231 228 229 232 235 232 228 228 232 234 231 229 232 234 222 224 254 294 263 245 257 318 330 296 318 336 323 326 322 312 309 308 308 311 312 312 312 314 313 311 309 308 309 311 314 317
199 200 199 199 200 201 202 202 203 205 206 207 208 209 209 209 209 207 205 204 206 212 216 219 225 227 228 228 229 232 233 234 234 233 233 233 236 241 237 227 226 228 234 236 231 225 220 220 224 225 228 234 244 247 249 269 288 274 255 270 291 303 306 309 259 322 333 335 335 330 320 316 313 313 314 315 319 322 320 315 313 313 313 313 315
199 199 199 200 201 202 202 202 203 205 207 208 209 210 210 211 210 210 211 211 210 212 214 217 224 228 228 229 231 231 232 233 233 231 230 230 234 237 232 226 225 227 233 235 229 224 218 218 222 223 229 237 247 265 280 290 290 282 290 295 294 301 308 295 275 315 338 310 330 340 345 339 331 330 332 332 334 334 331 327 321 320 319 317 317
199 198 199 200 201 202 202 202 203 204 207 208 209 211 212 213 212 211 212 214 215 214 214 216 223 227 228 229 232 232 231 233 234 232 229 228 231 232 226 223 226 227 230 231 226 225 223 219 222 228 237 244 250 261 270 286 298 293 309 323 312 308 313 300 291 304 265 295 313 320 338 342 343 353 358 350 346 342 337 335 332 328 326 325 324
199 199 199 200 200 201 201 202 203 204 207 209 210 211 212 213 213 212 212 213 213 212 212 216 222 226 227 230 232 233 233 234 234 231 227 227 228 228 225 223 226 227 228 228 223 224 225 220 223 234 244 250 252 258 262 273 292 290 298 321 327 325 321 322 329 330 327 326 297 292 323 335 334 340 354 352 345 342 340 339 337 335 336 335 332
198 198 198 199 199 200 200 202 203 204 206 208 209 210 210 211 214 214 213 213 211 209 209 213 220 223 226 231 234 236 236 236 234 230 226 224 225 226 226 225 227 229 228 226 223 224 226 226 231 241 250 253 253 261 265 259 266 273 277 301 325 335 336 341 344 340 330 323 307 299 317 328 321 320 337 345 341 339 339 340 341 346 350 349 345